ARIANE 2 DEB, 28565

Orbit data source: Space-Track

ARIANE 2 DEB, 28565 is space debris in HEO originally from a launch on Fri, 27 Jan 1989 UTC launched from the French Guiana (FRGUI). Debris objects in space refer to the collection of defunct objects orbiting the Earth. Examples of debris include non-operational satellites, rocket bodies, and fragments generated from explosions, collisions, or faulty payload assembly.

Loading next visibility...
Identifier
28565, 1989-006AG
Orbit
HEO
Country
Flag of FRFR
Related business
Manufacturer
EADS/LV
Mission
Spacecraft
Bus & Motor
Unknown
Mass
Unknown
Launch date (UTC)
1989-01-27 (37 years ago)
Launch vehicle
Unknown
Launch site
French Guiana (FRGUI)
Object type
Payload
Rocket body
Debris
Shape & HBR
Unknown
Radar Cross Section
Medium (>0.1 m² and <1 m²)

Expand to show TLE details & history
Last TLE update: 17 hours ago

TLE from 17 hours ago
0 ARIANE 2 DEB
1 28565U 89006AG  25241.99682716  .00003472  00000-0  17875-1 0  9996
2 28565   8.2352  64.1563 7100830 101.8596 339.2107  2.38919848183629
Epoch: 2025-08-29T23:55Z
TLE epoch observation values (Epoch: 2025-08-29T23:55:25.866Z)
Latitude
-0.00001°
Longitude
87.07442°
Altitude
7,263.457 km
Speed
6.447 km/s
True Right ascension
04h 17m 28s
True Declination
0° 00' 00"
Sunlit
Object was in daylight at epoch
Visualization orbit readout
Latitude
Unknown
Longitude
Unknown
Altitude
Unknown
Speed
Unknown
Apparent Right ascension
Unknown
Apparent Declination
Unknown
Sunlit
N/A
Visualization observer readout
Local Sidereal Time
08:06:07
Azimuth
Unknown
Elevation
Unknown
Doppler factor
Unknown
Orbital elements
Apogee altitude
34,049.61 km
Perigee altitude
475.736 km
Semi-major axis
23,640.81 km
Eccentricity
0.71008
Inclination
8.2352°
RAAN
64.1563°
Arg. of periapsis
101.8596°
True anomaly
258.50249°
Mean anomaly
339.2107°
Eccentric anomaly
306.51035°
Mean motion
0.5971 °/min
Orbital period
602.91 mins
BSTAR
0.017875
Loading maneuver chart data...
Computing Atmospheric mass density...
Loading historical data...
Loading historical data...
Loading historical data...
Loading historical data...
Loading historical data...
Loading historical data...
Loading historical data...

Documentation

Showing up to 5 results
|